Location: Saint Louis
(38.6272°N, 90.1978°W)
Time: 17:14:54
(UTC-05:00)

ISS - Pass Details

Date: 16 December 2012
Orbit: 402 x 403 km, 51.6° (Epoch: 27 June)

Event Time Altitude Azimuth Distance (km) Brightness Sun altitude
Rises 18:17:41 0° 301° (WNW) 2,414 1.3 -18.2°
Reaches altitude 10° 18:21:44 10° 347° (NNW) 1,560 -0.4 -19.0°
Enters shadow 18:22:09 10° 354° (N) 1,550 -0.5 -19.1°
